Weather History for Ft Lauderdale, FL

Change the Weather History Date:

Sunday, September 15, 2013

  Actual Average Record
Temperature  
Mean Temperature 81 °F 83 °F  
Max Temperature 84 °F 89 °F 95 °F (1933)
Min Temperature 77 °F 78 °F 68 °F (1976)
Degree Days  
Heating Degree Days 0 0  
Month to date heating degree days 0 0  
Since 1 July heating degree days 0 0  
Cooling Degree Days 16 18  
Month to date cooling degree days 262 276  
Year to date cooling degree days 3309 3442  
Growing Degree Days 30 (Base 50)    
Moisture  
Dew Point 76 °F    
Average Humidity 86    
Maximum Humidity 97    
Minimum Humidity 74    
Precipitation  
Precipitation 0.28 in 0.31 in 3.20 in (1945)
Month to date precipitation 0.84 4.23  
Year to date precipitation 57.88 45.30  
Snow  
Snow 0.00 in - - ()
Month to date snowfall 0.0  
Since 1 July snowfall 0.0  
Since 1 September snowfall 0.0  
Snow Depth 0.00 in    
Sea Level Pressure  
Sea Level Pressure 30.00 in    
Wind  
Wind Speed 9 mph (East)    
Max Wind Speed 25 mph    
Max Gust Speed 31 mph    
Visibility 10 miles    
Events Rain , Thunderstorm    
T = Trace of Precipitation, MM = Missing Value Source: NWS Daily Summary

Daily Weather History Graph

Daily Weather History Graph

Search for Another Location

Airport:

Trip Planner

Search our weather history database for the weather conditions in past years. The results will help you decide how hot, cold, wet, or windy it might be!

Date:

Astronomy

Sep. 15, 2013 Rise Set
Actual Time 7:06 AM EDT 7:24 PM EDT
Civil Twilight 6:43 AM EDT 7:47 PM EDT
Nautical Twilight 6:16 AM EDT 8:14 PM EDT
Astronomical Twilight 5:49 AM EDT 8:41 PM EDT
Moon 4:34 PM EDT (9/15) 3:02 AM EDT (9/15)
Length of Visible Light 13h 04m
Length of Day
12h 18m
Waxing Gibbous, 82% of the Moon is Illuminated
Sep 15
Waxing Gibbous
Sep 19
Full
Sep 26
Last Quarter
Oct 4
New
Oct 11
First Quarter

Hourly Weather History & Observations

Time (EDT) Temp. Heat Index Dew Point Humidity Pressure Visibility Wind Dir Wind Speed Gust Speed Precip Events Conditions
12:53 AM 82.9 °F 90.2 °F 75.0 °F 77% 29.97 in 10.0 mi ESE 12.7 mph - N/A Thunderstorm Thunderstorm
1:53 AM 77.0 °F - 77.0 °F 100% 29.96 in 10.0 mi North 4.6 mph - 0.18 in   Overcast
2:53 AM 78.1 °F - 77.0 °F 96% 29.95 in 10.0 mi ESE 9.2 mph - N/A   Scattered Clouds
3:53 AM 80.1 °F 85.8 °F 77.0 °F 90% 29.93 in 10.0 mi East 6.9 mph - N/A   Partly Cloudy
4:53 AM 78.1 °F - 77.0 °F 96% 29.94 in 10.0 mi Calm Calm - N/A   Partly Cloudy
5:53 AM 80.1 °F 85.8 °F 77.0 °F 90% 29.95 in 10.0 mi East 6.9 mph - N/A   Partly Cloudy
6:53 AM 81.0 °F 87.9 °F 77.0 °F 88% 29.97 in 10.0 mi East 6.9 mph - N/A   Partly Cloudy
7:53 AM 82.0 °F 89.4 °F 75.9 °F 82% 29.97 in 10.0 mi East 9.2 mph - N/A   Scattered Clouds
8:53 AM 82.0 °F 89.4 °F 75.9 °F 82% 29.99 in 10.0 mi East 10.4 mph - N/A   Scattered Clouds
9:02 AM 82.4 °F 89.5 °F 75.2 °F 79% 30.00 in 10.0 mi East 6.9 mph - N/A Thunderstorm Thunderstorm
9:37 AM 82.4 °F 90.9 °F 77.0 °F 84% 30.01 in 10.0 mi East 11.5 mph - N/A Thunderstorm Thunderstorm
9:53 AM 82.0 °F 91.0 °F 78.1 °F 88% 30.01 in 10.0 mi East 8.1 mph - 0.00 in Rain , Thunderstorm Light Thunderstorms and Rain
10:18 AM 77.0 °F - 75.2 °F 94% 30.02 in 8.0 mi ENE 9.2 mph 29.9 mph 0.03 in Rain , Thunderstorm Light Thunderstorms and Rain
10:53 AM 80.1 °F 86.7 °F 79.0 °F 96% 30.03 in 10.0 mi ENE 12.7 mph - 0.05 in   Mostly Cloudy
11:30 AM 80.6 °F 87.1 °F 77.0 °F 89% 30.03 in 10.0 mi East 21.9 mph 27.6 mph N/A Thunderstorm Thunderstorm
11:53 AM 80.1 °F 84.5 °F 73.9 °F 81% 30.04 in 10.0 mi East 20.7 mph - N/A Thunderstorm Thunderstorm
12:53 PM 79.0 °F - 73.0 °F 82% 30.03 in 10.0 mi SE 6.9 mph - N/A   Mostly Cloudy
1:28 PM 78.8 °F - 73.4 °F 83% 30.04 in 9.0 mi South 5.8 mph - N/A Thunderstorm Thunderstorm
1:53 PM 80.1 °F 85.1 °F 75.0 °F 85% 30.02 in 10.0 mi East 9.2 mph - 0.00 in Rain , Thunderstorm Light Thunderstorms and Rain
2:09 PM 80.6 °F 86.2 °F 75.2 °F 84% 30.01 in 10.0 mi ESE 9.2 mph - 0.02 in Rain Light Rain
2:53 PM 81.0 °F 89.2 °F 79.0 °F 94% 29.99 in 10.0 mi ESE 11.5 mph - 0.04 in   Mostly Cloudy
3:53 PM 82.9 °F 92.8 °F 78.1 °F 85% 29.99 in 10.0 mi ENE 5.8 mph - N/A Thunderstorm Thunderstorm
4:35 PM 82.4 °F 90.9 °F 77.0 °F 84% 29.99 in 10.0 mi ESE 12.7 mph - N/A   Mostly Cloudy
4:53 PM 82.9 °F 90.2 °F 75.0 °F 77% 29.99 in 10.0 mi ESE 9.2 mph - N/A   Scattered Clouds
5:53 PM 84.0 °F 91.9 °F 75.0 °F 74% 30.00 in 10.0 mi SE 5.8 mph - N/A   Partly Cloudy
6:53 PM 84.0 °F 91.9 °F 75.0 °F 74% 30.02 in 10.0 mi ESE 6.9 mph - N/A   Scattered Clouds
7:53 PM 82.9 °F 90.2 °F 75.0 °F 77% 30.03 in 10.0 mi East 8.1 mph - N/A   Scattered Clouds
8:53 PM 81.0 °F 85.2 °F 72.0 °F 74% 30.03 in 10.0 mi NE 6.9 mph - N/A   Partly Cloudy
9:53 PM 82.4 °F 89.5 °F 75.2 °F 79% 30.02 in 10.0 mi ENE 9.2 mph - N/A   Scattered Clouds
10:35 PM 82.4 °F 88.2 °F 73.4 °F 74% 30.05 in 10.0 mi East 11.5 mph - N/A   Mostly Cloudy
10:53 PM 82.4 °F 89.5 °F 75.2 °F 79% 30.04 in 10.0 mi East 11.5 mph - N/A   Mostly Cloudy
11:00 PM 82.4 °F 89.5 °F 75.2 °F 79% 30.03 in 10.0 mi East 13.8 mph - N/A   Partly Cloudy
11:09 PM 82.4 °F 89.5 °F 75.2 °F 79% 30.03 in 10.0 mi East 12.7 mph - N/A Thunderstorm Thunderstorm
11:26 PM 82.4 °F 89.5 °F 75.2 °F 79% 30.02 in 10.0 mi East 15.0 mph - N/A   Partly Cloudy
11:53 PM 81.0 °F 87.3 °F 75.9 °F 85% 30.01 in 10.0 mi East 13.8 mph - 0.00 in Rain Light Rain